Hourly Data Report for May 21, 2020

KUGAARUK CLIMATE
NUNAVUT
Current Station Operator: ECCC - MSC

68°32'15.060" N
89°47'47.020" W
15.80 m
2303094
71407
NBB

Download Data

Hourly Data (May 2020)
Hourly Data Report for May 21, 2020
TIME
LST
Temp Definition
°C
Dew Point Definition
°C
Rel Hum Definition
%
Precip. Amount Definition
mm

Wind Dir Definition
10's deg

Wind Spd Definition
km/h
Visibility Definition
km
Stn Press Definition
kPa
Hmdx Definition


Wind Chill Definition


Weather Definition


00:00 -7.2 -9.6 83 0.0 34 36   100.67   -17 LegendNANA
01:00 -7.3 -9.8 83 0.0 33 33   100.75   -16 LegendNANA
02:00 -7.2 -9.7 82 0.0 33 33   100.84   -16 LegendNANA
03:00 -7.4 -10.3 79 0.0 32 32   100.92   -16 LegendNANA
04:00 -8.1 -11.1 79 0.0 31 24   101.00   -16 LegendNANA
05:00 -7.7 -10.6 79 0.0 31 25   101.02   -16 LegendNANA
06:00 -7.1 -9.8 81 0.0 31 28   101.06   -15 LegendNANA
07:00 -6.3 -9.3 80 0.0 31 30   101.12   -15 LegendNANA
08:00 -6.3 -9.3 79 0.0 31 30   101.18   -15 LegendNANA
09:00 -5.4 -8.7 78 0.0 32 29   101.23   -13 LegendNANA
10:00 -4.3 -7.6 77 0.0 32 27   101.29   -12 LegendNANA
11:00 -3.6 -6.8 78 0.0 32 25   101.37   -11 LegendNANA
12:00 -3.0 -6.6 76 0.0 33 27   101.47   -10 LegendNANA
13:00 -3.1 -6.6 77 0.0 31 21   101.54   -9 LegendNANA
14:00 -3.7 -7.0 78 0.0 30 28   101.62   -11 LegendNANA
15:00 -4.2 -7.8 76 0.0 30 27   101.67   -12 LegendNANA
16:00 -4.8 -8.5 75 0.0 31 27   101.69   -12 LegendNANA
17:00 -5.7 -9.3 75 0.0 29 23   101.76   -13 LegendNANA
18:00 -6.0 -8.9 80 0.0 30 22   101.79   -13 LegendNANA
19:00 -6.2 -8.9 82 0.0 26 18   101.85   -13 LegendNANA
20:00 -6.6 -9.1 82 0.0 27 21   101.85   -14 LegendNANA
21:00 -6.9 -9.3 83 0.0 29 20   101.89   -14 LegendNANA
22:00 -6.2 -8.9 81 0.0 30 24   101.94   -14 LegendNANA
23:00 -6.2 -8.7 82 0.0 30 21   101.98   -13 LegendNANA

Notes on Data Quality.

Legend

  • E = Estimated
  • M = Missing
  • NA = Not Available*
  • [empty] = Indicates an unobserved value
Date modified: